Regional Weather Roundup
Issued by NWS Charleston, SC

Current Version | Previous Version | Graphics & Text | Print | Product List | Glossary On
Versions: 1 2 3 4 5 6 7 8 9 10 11 12 13 14 15 16 17 18 19 20 21 22 23 24 25 26 27 28 29 30 31 32 33 34 35 36 37 38 39 40 41 42 43 44 45 46 47 48 49 50
000
ASUS42 KCHS 041612
RWRCHS

REGIONAL WEATHER ROUNDUP
NATIONAL WEATHER SERVICE CHARLESTON SC
1200 PM EDT FRI SEP 04 2015

NOTE: "FAIR" INDICATES FEW OR NO CLOUDS BELOW 12,000 FEET WITH NO
SIGNIFICANT WEATHER AND/OR OBSTRUCTIONS TO VISIBILITY.

NOT ALL STATIONS ARE QUALITY CONTROLLED BY THE NATIONAL
WEATHER SERVICE. USE DATA WITH CAUTION...ESPECIALLY
DEWPOINT OBSERVATIONS.

SCZ027-030-031-034>040-042>050-041700-
...SOUTHEAST SOUTH CAROLINA...

CITY           SKY/WX    TMP DP  RH WIND       PRES   REMARKS
N CHARLESTON   MOSUNNY   90  73  57 VRB5      29.98R HX  98
WATERFRONT PRK   N/A     87  74  65 VRB2      29.95S HX  95
MOUNT PLEASANT LGT RAIN  90  73  58 CALM      29.98R HX  98
JOHNS ISLAND   FAIR      91  75  59 NE5       29.98R HX 102
PINOPOLIS        N/A     91  79  66 CALM      29.90F HX 107
MONCKS CORNER  FAIR      90  73  58 CALM      29.98S HX  98
SUMMERVILLE    FAIR      90  73  58 N6        29.99S HX  98
BEAUFORT MCAS  MOSUNNY   90  73  57 VRB3      29.98R HX  98
BEAUFORT ARPT  FAIR      90  77  66 NE7       29.97S HX 102
HILTON HEAD IS MOSUNNY   90  79  70 NW5       29.99S HX 105
WALTERBORO     SUNNY     91  72  52 N3        29.98F HX  98
ALLENDALE      FAIR      90  73  58 E5        29.98S HX  98

...SOUTHERN MIDLANDS AND PEE DEE...

CITY           SKY/WX    TMP DP  RH WIND       PRES   REMARKS
GEORGETOWN     NOT AVBL
KINGSTREE      NOT AVBL
ORANGEBURG     MOSUNNY   92  71  50 E6        29.98S HX  98
BARNWELL       FAIR      91  73  55 CALM      29.99S HX 100
AIKEN          FAIR      88  63  42 N7        30.04R
MANNING        FAIR      88  68  51 NW7       29.98S HX  91
COLUMBIA       MOSUNNY   91  71  51 VRB5      29.98S HX  97
SUMTER         SUNNY     89  71  55 NE3       29.97S HX  96
FLORENCE       SUNNY     90  72  55 E6        29.99S HX  97
MYRTLE BEACH   MOSUNNY   90  73  58 SE9       30.00S HX  98
N MYRTLE BEACH SUNNY     87  75  67 SE3       29.98S HX  96

$$

GAZ063-065-086>088-099>101-113>116-118-119-134>141-150-041700-
...SOUTHEAST GEORGIA...

CITY           SKY/WX    TMP DP  RH WIND       PRES   REMARKS
SAVANNAH ARPT  NOT AVBL
HUNTER AAF     MOSUNNY   88  79  75 CALM      29.96S HX 103
FORT STEWART   MOSUNNY   89  74  61 CALM      29.97S HX  97
STATESBORO     SUNNY     89  78  70 W3        29.98F HX 103
SYLVANIA       NOT AVBL
CLAXTON        NOT AVBL

...CSRA...CENTRAL AND FAR SOUTHEAST GEORGIA...

CITY           SKY/WX    TMP DP  RH WIND       PRES   REMARKS
THOMSON        SUNNY     90  76  63 NW3       30.05S HX 102
AUGUSTA-BUSH   SUNNY     92  72  51 VRB5      29.98R HX  99
AUGUSTA-DANIEL SUNNY     92  68  45 VRB3      30.01R HX  96
SWAINSBORO     FAIR      88  72  58 CALM      30.00S HX  94
VIDALIA        SUNNY     88  73  62 CALM      29.99F HX  96
EASTMAN        FAIR      89  75  64 CALM      30.02S HX  98
HAZLEHURST     PTSUNNY   91  73  55 NW5       29.99S HX  99
ALMA           SUNNY     90  72  55 CALM      29.99S HX  97
WAYCROSS       SUNNY     92  76  58 CALM      29.99S HX 104
JESUP          FAIR      91  77  62 CALM      29.99S HX 105
BAXLEY         PTSUNNY   90  73  58 CALM      29.99S HX  98
BRUNSWICK      MOSUNNY   90  73  58 CALM      29.99S HX  98
SAINT SIMONS   MOSUNNY   88  75  65 E8        29.98S HX  97

$$

SCZ027-028-034-036>038-045-046-048>050-GAZ119-141-041700-
...LAKE AND SUPPLEMENTAL COASTAL OBSERVATIONS...

STATION/POSITION TIME  TEMP    WIND        PRES    WAVE   SWELL
                       AIR SEA DIR/SP/G            HT/PER HT/PER/DIR
                 (UTC) (F)     (DEG/KT/KT) (MB)    (FT/S) (FT/S/D)
UPR LAKE MARION  NOT AVBL
WINYAH BAY       1445   85     360/  3     1014.0
LAKE MURRAY      1500   85      20/  1/  3 1014.9S
ACE BASIN NERRS  NOT AVBL
FORT PULASKI     1500   85 83   60/  2/  3 1015.6R
SAPELO ISLAND    1500   89     320/  2     1015.0S

$$

ANZ835-935-AMZ111-154-330-350-352-354-370-450-454-472-041700-
...C-MAN AND BUOY OBSERVATIONS...

STATION/POSITION TIME  TEMP    WIND        PRES    WAVE   SWELL
                       AIR SEA DIR/SP/G            HT/PER HT/PER/DIR
                 (UTC) (F)     (DEG/KT/KT) (MB)    (FT/S) (FT/S/D)
BUOY 41004       1550   82 85   30/  2/  4 1015.1R   1/ 7   2/ 7
BUOY 41008       1550   83 84   10/  4/  4 1015.7R   1/ 3
FOLLY BEACH CMAN 1500   86      40/  6/  6 1015.1R
CAPERS NEARSHORE 1508   84      30/  4/  6 1015.0S
FRIPP NEARSHORE  1500   86      40/  2/  4 1014.8R


STATION/POSITION TIME  TEMP    WIND        PRES    WAVE   SWELL
                       AIR SEA DIR/SP/G            HT/PER HT/PER/DIR
                 (UTC) (F)     (DEG/KT/KT) (MB)    (FT/S) (FT/S/D)
5E ST. MARYS GA  1521      85                N/A     1/ 8
FRYING PAN BUOY  1550   82 82   50/  4/  6 1015.5S   1/ 3   2/150/13
BUOY 41025       1550   83 84  360/  6/  8 1015.1R   1/12   2/ 60/12
CAPE LOOKOUT NC  1500   84     340/  6/  6 1015.0R
BUOY 41002       1550   82 85  360/  4/  8 1014.3F   2/11   2/ 40/11
BUOY 41010       1520   81 85   20/ 10/ 16 1015.7R
ST AUGUSTINE FL  1600   83 84   10/  5/  5 1016.5S


$$


USA.gov is the U.S. government's official web portal to all federal, state and local government web resources and services.